Weather History for Morrisville, VT

Change the Weather History Date:

Wednesday, June 4, 2014

  Actual Average Record
Temperature  
Mean Temperature 66 °F 59 °F  
Max Temperature 77 °F 72 °F 84 °F (2005)
Min Temperature 54 °F 47 °F 30 °F (2002)
Degree Days  
Heating Degree Days 0 7  
Month to date heating degree days 7 28  
Since 1 June heating degree days 7 28  
Since 1 July heating degree days 8513 8159  
Cooling Degree Days 1 1  
Month to date cooling degree days 7 4  
Year to date cooling degree days 12 12  
Since 1 June cooling degree days 7 4  
Growing Degree Days 18 (Base 50)    
Moisture  
Dew Point 54 °F    
Average Humidity 63    
Maximum Humidity 90    
Minimum Humidity 36    
Precipitation  
Precipitation 0.01 in 0.12 in 0.37 in (2008)
Month to date precipitation 0.57 0.48  
Year to date precipitation 14.17 12.10  
Sea Level Pressure  
Sea Level Pressure 29.80 in    
Wind  
Wind Speed 3 mph (NE)    
Max Wind Speed 15 mph    
Max Gust Speed 23 mph    
Visibility 10 miles    
Events      
T = Trace of Precipitation, MM = Missing Value Source: NWS Daily Summary

Daily Weather History Graph

Daily Weather History Graph

Search for Another Location

Airport:

Trip Planner

Search our weather history database for the weather conditions in past years. The results will help you decide how hot, cold, wet, or windy it might be!

Date:

Astronomy

Jun. 04, 2014 Rise Set
Actual Time 5:07 AM EDT 8:30 PM EDT
Civil Twilight 4:31 AM EDT 9:06 PM EDT
Nautical Twilight 3:43 AM EDT 9:54 PM EDT
Astronomical Twilight 2:44 AM EDT 10:54 PM EDT
Moon 11:34 AM EDT (6/4) 12:18 AM EDT (6/4)
Length of Visible Light 16h 35m
Length of Day
15h 23m
Waxing Crescent, 39% of the Moon is Illuminated
Jun 4
Waxing Crescent
Jun 5
First Quarter
Jun 13
Full
Jun 19
Last Quarter
Jun 27
New

Hourly Weather History & Observations

Time (EDT) Temp. Dew Point Humidity Pressure Visibility Wind Dir Wind Speed Gust Speed Precip Events Conditions
1:16 AM 61.0 °F 57.0 °F 87% 29.82 in 10.0 mi South 4.6 mph - N/A   Mostly Cloudy
1:54 AM 61.0 °F 57.0 °F 87% 29.81 in 10.0 mi Calm Calm - N/A   Overcast
2:54 AM 61.0 °F 57.9 °F 90% 29.81 in 10.0 mi Calm Calm - N/A   Overcast
3:54 AM 61.0 °F 57.9 °F 90% 29.81 in 10.0 mi SSE 3.5 mph - N/A   Overcast
4:25 AM 61.0 °F 57.9 °F 90% 29.81 in 10.0 mi South 3.5 mph - N/A   Mostly Cloudy
4:54 AM 60.1 °F 57.9 °F 93% 29.81 in 10.0 mi SSE 3.5 mph - N/A   Mostly Cloudy
5:42 AM 61.0 °F 57.9 °F 90% 29.83 in 9.0 mi Calm Calm - N/A   Overcast
5:54 AM 61.0 °F 57.9 °F 90% 29.83 in 7.0 mi Calm Calm - N/A   Overcast
6:44 AM 61.0 °F 57.9 °F 90% 29.84 in 7.0 mi Calm Calm - N/A   Overcast
6:54 AM 61.0 °F 57.9 °F 90% 29.84 in 7.0 mi Calm Calm - N/A   Overcast
7:54 AM 61.0 °F 57.0 °F 87% 29.86 in 10.0 mi North 4.6 mph - 0.01 in   Mostly Cloudy
8:02 AM 62.1 °F 57.0 °F 84% 29.86 in 10.0 mi North 5.8 mph - N/A   Mostly Cloudy
8:25 AM 62.1 °F 55.0 °F 78% 29.87 in 10.0 mi North 9.2 mph - N/A   Mostly Cloudy
8:52 AM 64.4 °F 53.6 °F 68% 29.87 in 10.0 mi North 4.6 mph - N/A   Mostly Cloudy
8:54 AM 64.0 °F 54.0 °F 70% 29.87 in 10.0 mi NNW 3.5 mph - N/A   Mostly Cloudy
9:54 AM 66.0 °F 53.1 °F 63% 29.86 in 10.0 mi Variable 3.5 mph - N/A   Clear
10:54 AM 68.0 °F 52.0 °F 56% 29.84 in 10.0 mi Calm Calm - N/A   Clear
11:54 AM 70.0 °F 52.0 °F 53% 29.81 in 10.0 mi Calm Calm - N/A   Clear
12:54 PM 73.0 °F 51.1 °F 46% 29.78 in 10.0 mi South 4.6 mph - N/A   Clear
1:54 PM 75.0 °F 46.9 °F 37% 29.76 in 10.0 mi SSW 5.8 mph - N/A   Clear
3:54 PM 73.9 °F 46.9 °F 38% 29.73 in 10.0 mi Variable 4.6 mph - N/A   Clear
4:54 PM 73.0 °F 48.9 °F 42% 29.73 in 10.0 mi SSW 6.9 mph - N/A   Overcast
5:54 PM 72.0 °F 48.9 °F 44% 29.72 in 10.0 mi Variable 5.8 mph - N/A   Overcast
6:54 PM 70.0 °F 48.9 °F 47% 29.73 in 10.0 mi Variable 4.6 mph - N/A   Overcast
7:54 PM 68.0 °F 52.0 °F 56% 29.73 in 10.0 mi North 6.9 mph - N/A   Overcast
8:54 PM 64.9 °F 53.1 °F 65% 29.75 in 10.0 mi Calm Calm - N/A   Mostly Cloudy
9:54 PM 63.0 °F 54.0 °F 72% 29.76 in 10.0 mi North 3.5 mph - N/A   Overcast
11:54 PM 57.9 °F 53.1 °F 84% 29.77 in 10.0 mi Calm Calm - N/A   Mostly Cloudy